TimeMST,TemperatureF,Dew PointF,Humidity,Sea Level PressureIn,VisibilityMPH,Wind Direction,Wind SpeedMPH,Gust SpeedMPH,PrecipitationIn,Events,Conditions,WindDirDegrees,DateUTC
12:53 AM,17.1,7.0,65,30.20,10.0,SE,6.9,-,N/A,,Clear,130,2013-02-07 07:53:00
1:53 AM,16.0,7.0,68,30.20,10.0,South,5.8,-,N/A,,Clear,170,2013-02-07 08:53:00
2:53 AM,14.0,5.0,67,30.22,10.0,ESE,3.5,-,N/A,,Clear,120,2013-02-07 09:53:00
3:53 AM,12.9,3.9,67,30.22,10.0,SSE,8.1,-,N/A,,Clear,160,2013-02-07 10:53:00
4:53 AM,12.0,5.0,73,30.22,10.0,SSE,6.9,-,N/A,,Clear,150,2013-02-07 11:53:00
5:53 AM,12.0,3.9,70,30.24,10.0,SSE,4.6,-,N/A,,Clear,150,2013-02-07 12:53:00
6:53 AM,10.0,1.9,70,30.27,10.0,SE,3.5,-,N/A,,Clear,140,2013-02-07 13:53:00
7:53 AM,10.9,1.9,67,30.26,10.0,ESE,5.8,-,N/A,,Clear,110,2013-02-07 14:53:00
8:53 AM,17.1,7.0,65,30.23,10.0,Calm,Calm,-,N/A,,Clear,0,2013-02-07 15:53:00
9:53 AM,19.9,5.0,52,30.21,10.0,SE,4.6,-,N/A,,Clear,130,2013-02-07 16:53:00
10:53 AM,25.0,7.0,46,30.19,10.0,Calm,Calm,-,N/A,,Clear,0,2013-02-07 17:53:00
11:53 AM,27.0,8.1,45,30.17,10.0,ESE,3.5,-,N/A,,Clear,120,2013-02-07 18:53:00
12:53 PM,28.9,9.0,43,30.13,10.0,Variable,4.6,-,N/A,,Clear,0,2013-02-07 19:53:00
1:53 PM,30.0,8.1,40,30.09,10.0,East,8.1,-,N/A,,Clear,90,2013-02-07 20:53:00
2:53 PM,32.0,8.1,37,30.06,10.0,ESE,9.2,-,N/A,,Clear,110,2013-02-07 21:53:00
3:53 PM,32.0,8.1,37,30.05,10.0,East,8.1,-,N/A,,Clear,100,2013-02-07 22:53:00
4:53 PM,30.0,12.9,49,30.05,10.0,East,11.5,-,N/A,,Clear,100,2013-02-07 23:53:00
5:53 PM,26.1,12.9,58,30.06,10.0,East,10.4,-,N/A,,Clear,80,2013-02-08 00:53:00
6:53 PM,26.1,12.0,55,30.07,10.0,ENE,6.9,-,N/A,,Clear,60,2013-02-08 01:53:00
7:53 PM,21.9,9.0,58,30.08,10.0,East,10.4,-,N/A,,Clear,80,2013-02-08 02:53:00
8:53 PM,23.0,9.0,55,30.03,10.0,East,11.5,-,N/A,,Clear,90,2013-02-08 03:53:00
9:53 PM,23.0,9.0,55,30.01,10.0,East,9.2,-,N/A,,Clear,100,2013-02-08 04:53:00
10:53 PM,23.0,9.0,55,29.98,10.0,ESE,11.5,-,N/A,,Clear,110,2013-02-08 05:53:00
11:53 PM,21.9,9.0,58,29.96,10.0,East,9.2,-,N/A,,Clear,100,2013-02-08 06:53:00